Regional Weather Roundup
Issued by NWS Raleigh/Durham, NC

Home | Current Version | Previous Version | Text Only | Print | Product List | Glossary On
Versions: 1 2 3 4 5 6 7 8 9 10 11 12 13 14 15 16 17 18 19 20 21 22 23 24 25 26 27 28 29 30 31 32 33 34 35 36 37 38 39 40 41 42 43 44 45 46 47 48 49 50
000
ASUS42 KRAH 061810
RWRRAH
NORTH CAROLINA WEATHER ROUNDUP
NATIONAL WEATHER SERVICE RALEIGH NC
100 PM EST FRI MAR 06 2015

NOTE: "FAIR" INDICATES FEW OR NO CLOUDS BELOW 12,000 FEET WITH NO
SIGNIFICANT WEATHER AND/OR OBSTRUCTIONS TO VISIBILITY.

NCZ001-053-055-056-065-067-061900-
WESTERN NORTH CAROLINA

CITY           SKY/WX    TMP DP  RH WIND       PRES   REMARKS
ASHEVILLE      FAIR      39  12  33 VRB7      30.35F WCI  34
JEFFERSON      FAIR      31   7  37 SE3       30.29F
MORGANTON      FAIR      38  10  30 N3        30.46F
HICKORY        FAIR      34   9  35 VRB5      30.42F WCI  30
RUTHERFORDTON  FAIR      39  13  34 CALM      30.42F
MOUNT AIRY     FAIR      33  11  40 NE7       30.45F WCI  27
BOONE          FAIR      33  13  44 SE5       30.29F WCI  28
$$

NCZ021-022-025-041-071-084-088-061900-
CENTRAL NORTH CAROLINA

CITY           SKY/WX    TMP DP  RH WIND       PRES   REMARKS
CHARLOTTE      FAIR      37  15  40 N6        30.45F WCI  32
GREENSBORO     FAIR      32  19  58 NW6       30.45F WCI  26
WINSTON-SALEM  FAIR      32  14  47 MISG      30.46F
RALEIGH-DURHAM FAIR      32  10  40 N3        30.48F
FORT BRAGG     FAIR      37   9  30 VRB7      30.45F WCI  32
FAYETTEVILLE   FAIR      37  12  35 N7        30.46F WCI  32
BURLINGTON     FAIR      34  14  43 N8        30.46F WCI  27
LAURINBURG     FAIR      40  16  37 NE9       30.46F WCI  34
$$

NCZ011-015-027-028-043-044-047-080-103-061900-
NORTHEASTERN NORTH CAROLINA

CITY           SKY/WX    TMP DP  RH WIND       PRES   REMARKS
ROCKY MT-WILSO FAIR      32  14  47 N7        30.49F WCI  26
GREENVILLE     FAIR      34  18  51 N13       30.48F WCI  25
WASHINGTON     FAIR      33  21  62 N13       30.47F WCI  23
ELIZABETH CITY FAIR      30  19  63 NE13      30.50F WCI  20
MANTEO         CLOUDY    30  22  74 N21G28    30.46F WCI  17
CAPE HATTERAS  CLOUDY    32  25  75 N16G30    30.41F WCI  21
$$

NCZ078-087-090-091-093-098-101-061900-
SOUTHEASTERN NORTH CAROLINA

CITY           SKY/WX    TMP DP  RH WIND       PRES   REMARKS
LUMBERTON      FAIR      39  16  39 N12       30.45F WCI  32
GOLDSBORO      FAIR      33  22  61 N8G18     30.45F WCI  27
KINSTON        FAIR      36  19  51 N12G18    30.48F WCI  27
KENANSVILLE    FAIR      35  19  51 NE8       30.47F WCI  29
NEW BERN       FAIR      38  20  48 NE13      30.45F WCI  30
CHERRY POINT   CLOUDY    39  21  48 N15G24    30.44F WCI  31
BEAUFORT       CLOUDY    35  22  58 N17G24    30.42F WCI  25
JACKSONVILLE   CLOUDY    40  22  48 N12       30.43F WCI  33
WILMINGTON     CLOUDY    39  23  52 N10       30.43F WCI  32
$$




USA.gov is the U.S. government's official web portal to all federal, state and local government web resources and services.